Flag for U.S.A. Weather past 2 weeks in Urbana, Illinois, U.S.A.

41 °F

Light rain. Fog.

Feels Like: 32 °F
Forecast: 36 / 41 °F
Wind: 17 mph from Northeast

Location: University Of Illinois-Willard Airport

Current Time: Nov 27, 2015 at 7:30:15 PM

Latest Report: Nov 27, 2015 at 6:53 PM

Visibility: 5 mi

Pressure: 30.32 "Hg

Humidity: 89%

Dew point: 38 °F

Location of UrbanaLocation

Historic Weather in Urbana — Graph


Urbana temperature yesterday

Maximum temperature yesterday: 65 °F (at 12:53 PM)
Minimum temperature yesterday: 51 °F (at 6:53 AM)
Average temperature yesterday: 57 °F

Past Weeks' High & Low Weather Summary

High67 °F (Nov 15, 12:53 PM)100% (Nov 17, 4:53 AM)30.39 "Hg (Nov 17, 4:53 AM)
Low8 °F (Nov 22, 4:53 AM)25% (Nov 15, 12:53 PM)29.51 "Hg (Nov 18, 5:53 AM)
Average43 °F72%30.14 "Hg
* Reported Nov 12 5:53 PM — Nov 27 5:53 PM, Urbana, Weather by CustomWeather, © 2015

Note: Actual official high and low records may vary slightly from our data, if they occured in-between our weather recording intervals... More about our weather records


Urbana weather history for previous 24 hours

Time TempWeatherWind HumidityBarometerVisibility
5:53 PM
Fri, Nov 27
41 °FLight rain. Mostly cloudy.21 mph89%30.32 "Hg9 mi
4:53 PM42 °FLight rain. Fog.18 mph89%30.30 "Hg2 mi
3:53 PM43 °FRain. Fog.21 mph89%30.30 "Hg2 mi
2:53 PM44 °FLight rain. Fog.21 mph89%30.28 "Hg4 mi
1:53 PM45 °FRain. Fog.17 mph90%30.27 "Hg5 mi
1:00 PM45 °FLight rain. Fog.17 mph90%30.26 "Hg4 mi
11:53 AM46 °FLight rain. Fog.15 mph93%30.26 "Hg4 mi
10:53 AM49 °FRain. Fog.13 mph90%30.27 "Hg2 mi
9:53 AM54 °FLight rain. Fog.7 mph93%30.27 "Hg2 mi
8:53 AM56 °FLight rain. Low clouds.16 mph90%30.25 "Hg8 mi
7:53 AM55 °FRain. Fog.12 mph93%30.24 "Hg4 mi
6:53 AM55 °FHeavy rain. Fog.10 mph93%30.24 "Hg3 mi
5:53 AM56 °FHeavy rain. Fog.13 mph90%30.24 "Hg3 mi
4:53 AM56 °FRain. Fog.18 mph87%30.21 "Hg6 mi
3:53 AM57 °FRain. Mostly cloudy.20 mph83%30.21 "Hg6 mi
2:53 AM58 °FLight rain. Mostly cloudy.22 mph78%30.19 "Hg10 mi
1:53 AM59 °FMostly cloudy.22 mph72%30.19 "Hg10 mi
12:53 AM59 °FOvercast.22 mph72%30.19 "Hg10 mi
11:53 PM
Thu, Nov 26
58 °FLight rain. Overcast.16 mph75%30.21 "Hg10 mi
10:53 PM59 °FOvercast.17 mph69%30.21 "Hg10 mi
9:53 PM59 °FOvercast.17 mph72%30.23 "Hg10 mi
8:53 PM59 °FMostly cloudy.21 mph44%30.23 "Hg10 mi
7:53 PM59 °FOvercast.20 mph67%30.24 "Hg10 mi
Weather by CustomWeather, © 2015

See weather overviewHow to use our weather pages